Location: La Brionne
(46.1728°N, 1.7849°E)
Time: 07:39:05
(UTC+00:00)

Geosat - Pass Details

Date: 16 June 2021
Orbit: 762 x 766 km, 108.0° (Epoch: 31 July)

Event Time Altitude Azimuth Distance (km) Brightness Sun altitude
Exits shadow 21:15:05 16° 154° (SSE) 1,935 5.5 -11.7°
Maximum altitude 21:19:12 83° 241° (WSW) 776 4.0 -12.1°
Drops below altitude 10° 21:24:15 10° 331° (NNW) 2,309 8.0 -12.6°
Sets 21:26:32 0° 332° (NNW) 3,240 9.3 -12.9°
